Location: Kanthamr?ju Kond?ru
(16.3484°N, 80.6017°E)
Time: 19:50:50
(UTC+00:00)

Daily predictions for brighter satellites

Satellite Brightness Start Highest point End
(mag) Time Altitude Azimuth Time Altitude Azimuth Time Altitude Azimuth
Cosmos 1821 Rocket 4.1 13:25:27 10° N 13:31:34 63° E 13:37:47 10° SSE
Cosmos 1842 3.3 13:32:51 10° SSE 13:36:08 43° E 13:39:24 10° NNE
Meteor 2-9 Rocket 4.3 13:40:41 10° N 13:46:29 82° E 13:52:10 10° S
Cosmos 1420 Rocket 4.0 13:47:40 10° N 13:52:47 61° ENE 13:57:52 10° SSE
NOAA 6 4.5 13:50:48 10° S 13:55:51 64° WSW 14:00:57 10° NNW
Cosmos 44 Rocket 3.6 13:51:13 10° NNW 13:56:04 54° ENE 14:00:29 13° SE
Cosmos 2263 Rocket 3.8 13:59:17 13° E 13:59:17 13° E 14:01:33 10° ENE
Cosmos 2227 Rocket 2.8 13:54:24 10° SSE 13:59:24 33° ESE 14:04:23 10° NE
Meteor 1-31 Rocket 2.8 13:57:37 10° S 14:01:12 69° W 14:04:47 10° NNW
Cosmos 2360 Rocket 2.7 13:57:06 10° NNW 14:02:38 61° WSW 14:08:10 10° S
Cosmos 2322 Rocket 3.2 13:58:12 10° NNW 14:03:32 47° WSW 14:08:51 10° S
CARTOSAT-1 3.5 14:00:47 10° SSE 14:04:56 63° ENE 14:09:06 10° N
Cosmos 1766 2.8 14:05:31 10° N 14:08:57 73° E 14:12:00 13° S
Cosmos 1470 3.7 14:06:54 10° NNE 14:09:46 23° E 14:10:24 22° E
Cosmos 1151 Rocket 2.8 14:06:01 10° S 14:10:13 73° E 14:14:27 10° N
GENESIS II 3.2 14:11:52 10° NNW 14:14:43 82° ENE 14:15:51 32° SSE
Cosmos 921 Rocket 3.6 14:12:56 17° SSE 14:15:27 33° E 14:19:15 10° NE
Cosmos 1818 4.2 14:12:42 10° SW 14:17:59 58° WNW 14:23:21 10° NNE
CZ-4B R/B 4.4 14:16:54 19° E 14:18:26 21° ENE 14:22:21 10° NNE
SL-08 R/B 4.4 14:12:33 10° N 14:18:44 86° E 14:24:50 10° S
MOS 1 Rocket 4.1 14:13:58 10° S 14:19:01 56° W 14:23:47 10° NNW
Cosmos 1805 Rocket 4.4 14:15:17 10° NNE 14:19:03 30° E 14:20:06 26° ESE
Hubble Space Telescope 1.4 14:16:25 10° W 14:19:59 38° SSW 14:21:35 25° SSE
Cosmos 1908 2.6 14:16:58 10° N 14:20:07 66° E 14:21:27 31° SSE
TRACE 3.4 14:17:44 10° N 14:20:11 89° NNW 14:21:22 27° SSW
Ariane 3 Deb 4.0 14:17:17 10° SW 14:20:28 28° SSE 14:22:28 23° SE
ARIANE 5 R/B 4.4 14:20:22 10° SW 14:22:33 14° S 14:22:48 14° S
CSL-04 Rocket 4.2 14:21:17 24° ESE 14:23:40 37° ENE 14:28:27 10° N
SL-4 R/B 3.5 14:22:55 10° WSW 14:26:43 38° NW 14:30:35 10° NNE
Cosmos 2219 4.4 14:29:45 22° E 14:29:45 22° E 14:33:04 10° NE
CZ-4 R/B 1.3 14:28:09 36° SE 14:29:26 57° ENE 14:33:08 10° N
Cosmos 1975 3.6 14:27:23 10° NNW 14:30:59 47° W 14:34:22 11° SSW
In-Cosmos 22 4.5 14:27:26 18° SSE 14:31:25 47° E 14:36:51 10° NNE
Okean O Rocket 3.7 14:34:46 12° ENE 14:34:46 12° ENE 14:35:47 10° NE
Cosmos 2219 Rocket 2.8 14:32:12 10° NNW 14:37:37 54° WSW 14:42:10 15° S
Delta 2 Rocket 4.4 14:32:41 10° WSW 14:39:57 88° SSE 14:48:53 10° ENE
RESURS DK-1 2.1 14:39:34 12° SSW 14:43:15 87° ESE 14:47:15 10° NNE
SWIFT 3.7 14:40:50 10° WSW 14:43:22 20° SSW 14:43:22 20° SSW
Cosmos 1743 Rocket 3.8 14:39:45 10° NNE 14:43:46 44° E 14:43:46 44° E
Cosmos 1535 Rocket 4.5 14:38:59 10° N 14:44:57 57° E 14:47:16 36° SE
Cosmos 1605 Rocket 4.1 14:41:46 10° N 14:47:39 52° E 14:49:22 40° SE
SL-24 DEB 4.3 14:48:33 50° E 14:48:50 51° E 14:53:17 10° N
Resurs 01 Rocket 2.8 14:45:29 13° SSW 14:48:56 38° W 14:52:59 10° NNW
ATLAS 2A CENTAUR R/B 4.2 14:34:12 10° WNW 14:50:33 42° N 14:53:58 19° ENE
Cosmos 1452 Rocket 4.4 14:46:08 10° NNE 14:50:31 30° ENE 14:50:31 30° ENE
GPS 2-12 Rocket1 3.3 14:49:08 10° W 14:53:43 65° N 14:55:02 44° NE
Cosmos 2237 Rocket 3.6 14:55:57 10° NNE 14:59:41 22° ENE 14:59:41 22° ENE
Meteor 2-19 Rocket 4.4 14:57:08 19° S 15:01:38 83° W 15:07:41 10° N
CZ-2C R/B 4.4 15:06:51 23° WSW 15:07:22 24° W 15:10:10 10° NW
Delta 198 4.3 15:04:30 10° WNW 15:07:50 37° N 15:07:50 37° N
Helios 1A 3.5 15:05:31 10° N 15:08:26 49° N 15:08:26 49° N
Feng Yun 1-1 Rocket 4.3 15:09:07 51° S 15:10:43 86° WSW 15:16:39 10° NNW
MetOp-B 4.4 15:16:36 54° NE 15:16:36 54° NE 15:21:17 10° N
Terra 3.4 15:18:25 23° NNE 15:18:25 23° NNE 15:20:35 10° NNE
Cosmos 1328 Rocket 4.1 15:16:45 53° W 15:17:00 54° W 15:21:17 10° N
ADEOS 4.4 15:16:18 34° SSW 15:18:00 46° W 15:22:58 10° NNW
NOSS 0 Rocket 3.8 15:13:20 10° NNW 15:19:30 72° ENE 15:19:45 70° E
Okean-O 4.4 15:22:20 22° NNE 15:22:20 22° NNE 15:24:08 10° N
OAO 3 Rocket 3.8 15:20:29 10° WNW 15:24:20 52° W 15:24:20 52° W
NOSS 2-2 (D) 4.5 15:20:33 10° NNW 15:26:12 84° ENE 15:26:53 74° SE
COSMOS 2428 3.0 15:21:02 10° NNW 15:26:37 58° WSW 15:27:17 55° SW
Cosmos 1000 Rocket 4.4 15:29:58 74° SSW 15:30:33 85° W 15:36:48 10° N
MOS 1 4.3 15:34:36 78° NW 15:34:36 78° NW 15:39:53 10° NNW
SPOT 5 3.8 15:36:03 41° WNW 15:36:03 41° WNW 15:39:37 10° NNW
Cosmos 2263 Rocket 3.0 15:40:45 34° WSW 15:42:38 47° WNW 15:48:03 10° N
Okean O Rocket 4.3 16:12:02 17° NW 16:12:02 17° NW 16:13:15 10° NW
USA 215 4.4 16:41:57 38° NW 16:41:57 38° NW 16:45:42 10° NW
Cosmos 2237 Rocket 4.4 16:39:25 10° NW 16:41:29 19° WNW 16:41:29 19° WNW
Cosmos 2369 Rocket 4.3 20:36:30 23° NE 20:36:30 23° NE 20:38:35 10° NNE
USA 281 4.2 20:49:05 10° NE 20:54:07 38° E 20:54:07 38° E
ATLAS 3B R/B 4.4 21:00:31 10° NNW 21:03:03 23° NW 21:03:03 23° NW
Resurs 1-4 Rocket 4.2 21:14:40 10° N 21:16:11 18° NNW 21:16:11 18° NNW
Atlas Centaur 2 4.3 21:21:31 24° NW 21:24:47 31° N 21:31:55 10° NE
Lacrosse 5 rocket 3.7 21:41:41 18° N 21:41:41 18° N 21:42:54 10° NNE
CZ-2D R/B 4.2 21:38:20 10° NNW 21:39:40 16° NNW 21:39:40 16° NNW
METEOR-M 4.4 21:38:57 10° NNE 21:43:24 63° N 21:43:24 63° N
Cosmos 1400 Rocket 4.5 21:47:43 10° NNE 21:51:05 29° E 21:51:05 29° E
ISS -1.2 21:54:31 21° NE 21:54:31 21° NE 21:55:47 10° NE
COSMOS 2406 3.1 21:48:42 10° NNW 21:54:12 81° NW 21:54:12 81° NW
Cosmos 2082 Rocket 4.0 21:50:01 10° NW 21:51:33 18° NW 21:51:33 18° NW
ADEOS II 3.9 21:51:35 10° NNW 21:53:35 19° NW 21:53:35 19° NW
Ariane H10+ 3.7 21:59:52 30° SSE 21:59:52 30° SSE 22:03:45 10° SE
DMSP B5D2-2 4.1 22:03:35 44° SSE 22:05:17 79° ENE 22:10:32 10° N
Aureole 1 Rocket 4.5 22:10:30 24° NNW 22:10:30 24° NNW 22:12:40 10° N
ARGOS 4.2 22:05:50 10° NNE 22:10:54 41° E 22:14:34 17° SSE
GPS 2-17 Rocket1 4.4 22:12:44 26° SE 22:12:44 26° SE 22:15:37 10° ESE
Cosmos 1606 Rocket 4.0 22:08:42 10° N 22:12:55 58° E 22:14:17 38° SE
SL-16 R/B 2.7 22:07:23 10° SSE 22:13:32 72° ENE 22:19:42 10° N
CZ-2C R/B 2.4 22:10:51 10° NNE 22:15:35 76° ESE 22:16:55 48° S
Cosmos 2369 Rocket 4.4 22:18:17 11° NW 22:18:17 11° NW 22:19:04 10° NW
Cosmos 1892 Rocket 3.7 22:17:44 57° NW 22:17:44 57° NW 22:21:36 10° N
H-2A R/B 2.1 22:15:41 10° N 22:20:39 53° WNW 22:21:02 52° W
OAO 1 4.4 22:22:27 47° W 22:23:47 63° SW 22:29:12 10° SE
CZ-3 Stage 3 4.3 22:21:59 22° S 22:27:32 45° SE 22:56:37 10° ENE
Nadezhda 2 Rocket 4.4 22:28:01 28° SSW 22:31:31 76° W 22:37:51 10° N
Cosmos 1441 Rocket 3.2 22:33:03 45° SSE 22:33:57 66° E 22:37:25 10° NNE
GPS 2-15 Rocket1 3.2 22:32:24 33° WNW 22:34:19 67° N 22:38:52 10° E
ACS3 Solar Sail 4.4 22:33:05 10° ENE 22:36:11 14° E 22:39:18 10° SE
Cosmos 44 3.3 22:36:08 30° S 22:38:05 62° ESE 22:42:20 10° NNE
BlueWalker 3 4.2 22:38:30 13° NW 22:38:30 13° NW 22:39:55 10° NNW
USA 281 4.4 22:34:17 10° NNW 22:39:16 24° WNW 22:40:59 21° W
USA 32 3.9 22:38:02 21° S 22:41:34 80° W 22:46:48 10° N
Helios 1A Rocket 3.7 22:38:49 10° SSE 22:42:11 44° ENE 22:45:35 10° N
IRS-1D 4.1 22:38:54 10° NNE 22:43:49 54° ESE 22:48:39 10° S
Cosmos 1937 Rocket 4.2 22:43:04 31° W 22:44:10 34° WNW 22:48:51 10° N
PAYLOAD A 4.2 22:39:02 10° N 22:44:20 62° WNW 22:47:29 25° SSW
CZ-4C R/B 1.9 22:45:11 35° W 22:45:44 37° WNW 22:49:35 10° N
Meteor 2-3 Rocket 4.1 22:44:40 29° SW 22:47:05 45° W 22:52:33 10° N
Geosat FO 4.0 22:49:16 48° SSW 22:49:47 57° WSW 22:52:43 10° NNW
Cosmos 1626 Rocket 3.4 22:46:49 17° S 22:50:03 86° E 22:54:20 10° N
Chandra Rocket (1) 4.3 22:47:03 10° NW 22:50:29 27° N 22:58:45 10° ENE
UNK 3.7 22:47:09 10° SSE 22:51:40 85° E 22:56:11 10° N
Intelsat 5-2 Rocket 1.8 22:53:29 55° SW 22:53:52 70° SSE 22:56:45 10° ENE
Delta 128 3.5 22:52:16 29° WSW 22:54:32 75° NNW 22:58:59 10° ENE
Cosmos 1726 Rocket 3.7 22:50:25 10° NNW 22:54:34 51° W 22:58:03 15° SSW
Cosmos 1656 3.6 22:50:58 18° SSW 22:55:19 83° WNW 23:01:00 10° NNE
ADEOS Rocket 3.4 22:49:27 10° N 22:56:28 83° WNW 23:04:06 10° SSW
BREEZE-M DEB (TANK) 2.7 22:48:55 10° NW 22:57:54 88° ENE 23:01:07 10° SE
SL-08 RB Rocket 3.6 22:58:34 10° N 23:03:08 76° WNW 23:07:42 10° SSW
Cosmos 2058 Rocket 3.1 22:58:52 10° N 23:03:13 80° E 23:07:35 10° S
Cosmos 1461 3.6 23:01:29 10° NNW 23:05:26 53° ENE 23:09:20 10° SE
Cosmos 1745 Rocket 3.9 22:59:23 10° S 23:05:32 78° W 23:11:46 10° N
Cosmos 1697 Rocket 4.2 23:02:31 10° SSE 23:07:32 34° ESE 23:12:33 10° NE
Cosmos-2242 3.6 23:04:48 10° N 23:08:52 58° E 23:12:57 10° SSE
Okean 1-7 Rocket 4.4 23:05:44 10° SSE 23:09:56 51° E 23:14:09 10° NNE
Intelsat 5-1 Rocket 2.8 23:04:31 16° WSW 23:12:08 83° NNW 23:15:59 10° ENE
CZ-4 R/B 4.2 23:12:56 10° N 23:17:44 51° WNW 23:22:30 10° SSW
Intelsat 5-3 Rocket 3.9 23:16:51 10° NW 23:18:50 20° N 23:21:37 10° ENE
Cosmos 1484 Rocket 4.0 23:17:03 10° NNE 23:20:15 36° E 23:23:28 10° SSE
Cosmos 1709 Rocket 4.0 23:15:45 10° S 23:22:00 82° W 23:28:21 10° N
Cosmos 2084 4.2 23:19:19 10° NW 23:22:32 25° WSW 23:25:47 10° S
SJ-11-01 4.3 23:22:05 10° NNE 23:26:43 89° W 23:31:22 10° SSW
Cosmos 1933 4.5 23:26:06 10° NW 23:29:08 22° W 23:32:10 10° SW
Nadezhda 1 Rocket 4.1 23:24:21 10° N 23:30:42 87° E 23:36:57 10° S
Cosmos 1939 Rocket 4.0 23:31:44 10° NNW 23:34:44 23° WNW 23:37:44 10° SW
USA 267 3.7 23:31:05 10° NE 23:37:31 63° SE 23:43:57 10° SSW
Cosmos 923 Rocket 4.3 23:33:36 10° N 23:38:46 75° ENE 23:43:55 10° SSE
